Regional Weather Roundup
Issued by NWS

Home | Current Version | Previous Version | Graphics & Text | Print | Product List | Glossary On
Versions: 1 2 3 4 5 6 7 8 9 10 11 12 13 14 15 16 17 18 19 20 21 22 23 24 25 26 27 28 29 30 31 32 33 34 35 36 37 38 39 40 41 42 43 44 45 46 47 48 49 50
000
ASUS45 KTFX 262119
RWRMT
MONTANA HOURLY WEATHER ROUNDUP
NATIONAL WEATHER SERVICE GREAT FALLS MT
319 PM MDT THU MAR 26 2015

NOTE: "FAIR" INDICATES FEW OR NO CLOUDS BELOW 12000 FEET WITH NO
SIGNIFICANT WEATHER AND/OR OBSTRUCTIONS TO VISIBILITY.

* THESE STATIONS ARE NOT UNDER NWS QUALITY CONTROL. THEY DO NOT
   REPORT WEATHER SUCH AS PRECIPITATION OR FOG.

MTZ001>007-043-262200-
WEST OF THE DIVIDE
CITY           SKY/WX    TMP DP  RH WIND       PRES   REMARKS
KALISPELL      CLOUDY    45  43  93 CALM      30.27F
MISSOULA       CLOUDY    54  39  57 CALM      30.33F
BUTTE          CLOUDY    52  34  50 NW12      30.28F
MULLAN PASS    CLOUDY    39  39 100 VRB3      30.32F
* ESSEX        N/A       50  38  64 SW2G11     N/A
* EUREKA APT   PTSUNNY   55  43  64 SE13      30.23F
* HAMILTON APT PTCLDY    57  37  47 SE7       30.33F
* LIBBY APT    PTCLDY    63  43  48 SE6       30.24F
* LINCOLN      N/A       47  38  71 W5G10      N/A
* LOOKOUT PASS N/A       49  42  77 SE6G17     N/A
* POLSON       N/A       55  40  57 S3G8       N/A
* RONAN APT    PTCLDY    54  45  72 SE7        N/A
* SEELEY LAKE  N/A       48  38  68 NW4G13     N/A
* THOMP F APT  PTCLDY    46  28  50 S5G12      N/A
$$

MTZ008-052>055-262200-
SOUTHWEST MONTANA
CITY           SKY/WX    TMP DP  RH WIND       PRES   REMARKS
BOZEMAN        CLOUDY    57  34  42 W9        30.22F
DILLON         CLOUDY    61  32  34 W14G24    30.26F
* W YELLOWSTON PTCLDY    41  29  62 SW6G15     N/A
* THREE FORKS  PTSUNNY   59  37  44 W8         N/A
* TWIN BRIDGES PTCLDY    57  28  33 S8         N/A
* BOULDER HILL N/A       52  30  43 W2G10      N/A
* HOMESTAKE PS N/A       48  33  56 W11G24     N/A
* MONIDA PASS  N/A       47  28  48 SE11G19    N/A
* RAYNOLDS PAS N/A       37  19  48 SE19       N/A   WCI  27
* WHITEHALL    N/A       59  35  41 NW12G23    N/A
* WISE RIVER   N/A       54  35  49 W17G26     N/A
$$

MTZ009>010-012-014-046-048-049-054-262200-
EAST SLOPES AND CENTRAL MONTANA
CITY           SKY/WX    TMP DP  RH WIND       PRES   REMARKS
CUT BANK       PTSUNNY   61  36  39 W28G38    30.04F
GREAT FALLS    PTSUNNY   64  36  35 W29G40    30.06F
HELENA         CLOUDY    59  37  44 W18G28    30.22F
MALMSTROM AFB  PTSUNNY   64  36  35 W26G35    30.07F
* CONRAD       PTSUNNY   64  37  37 W13G24     N/A
* DEARBORN     N/A       59  37  44 SE23G31    N/A
* EAST GLACIER N/A       48  36  63 W26G38     N/A
* MONARCH      N/A       55  28  35 W23G35     N/A
* PENDROY      N/A       61  32  34 NW20G34    N/A
* ROGERS PASS  N/A       45  36  71 SE21G35    N/A
* SWEET GRASS  N/A       59  34  39 NW26G34    N/A
* WHITE SULPH  N/A       56  33  42 W7G20      N/A
$$

MTZ011-013-016-021-035-040-045-047-050-051-262200-
NORTH CENTRAL MONTANA
CITY           SKY/WX    TMP DP  RH WIND       PRES   REMARKS
HAVRE          CLOUDY    63  34  34 W10       30.01F
LEWISTOWN      CLOUDY    61  34  36 NW22G30   30.06F
* CHINOOK      PTSUNNY   63  34  34 W6        30.01F
* FORT BENTON  CLOUDY    66  34  31 W22       30.03F
* MALTA APT    CLOUDY    55  30  39 N/A        N/A
* CHESTER      N/A       64  33  31 NW18G30    N/A
* DENTON       N/A       61  32  34 NW20G26    N/A
* GEYSER       N/A       60  31  33 W29G34     N/A
* JUDITH GAP   N/A       58  32  37 NW10G18    N/A
* LOMA         N/A       66  35  32 W15G27     N/A
$$

MTZ017>020-022>027-061-062-262200-
NORTHEAST MONTANA
CITY           SKY/WX    TMP DP  RH WIND       PRES   REMARKS
GLASGOW        PTSUNNY   50  32  50 SE14      30.08F
GLENDIVE       PTSUNNY   46  28  50 SE3       30.13F
JORDAN         PTSUNNY   57  30  36 VRB5      30.05F
SIDNEY         PTSUNNY   43  32  65 E7        30.17S
WOLF POINT     CLOUDY    48  36  63 E12       30.13F
* BEAVER HILL  N/A       46  33  61 E11        N/A
* CIRCLE       N/A       53  32  45 S1G6       N/A
* LINDSAY DVD  N/A       48  30  50 E4G9       N/A
* NAVAJO       N/A       36  31  82 SE7        N/A   WCI  30
* PLENTYWOOD A PTSUNNY   41  30  65 S8        30.15S
* POPLAR APT   PTCLDY    45  36  71 E7        30.14F
* SACO         N/A       52  29  41 E7         N/A
$$

MTZ028>042-056>058-262200-
SOUTHCENTRAL AND SOUTHEAST MONTANA
CITY           SKY/WX    TMP DP  RH WIND       PRES   REMARKS
BAKER          CLOUDY    48  28  46 NE5       30.12F
BILLINGS       CLOUDY    61  32  34 NW18G28   30.08F
LIVINGSTON     CLOUDY    57  32  39 W31G41    30.17F
MILES CITY     CLOUDY    55  30  39 N5        30.07F
* BIG TIMBER A PTSUNNY   55  34  45 W29G41    30.13F
* FORSYTH APT  PTSUNNY   55  34  45 W6        30.07F
* LAUREL APT   PTSUNNY   61  30  31 W11        N/A
* ROUNDUP APT  PTSUNNY   61  30  31 SW6        N/A
* ALZADA       N/A       49  27  43 W11        N/A
* HYSHAM       N/A       56  29  36 W7         N/A
* LAME DEER    N/A       51  31  46 NW9G20     N/A
* REED POINT   N/A       61  33  35 W32G39     N/A
* ROSCOE HILL  N/A       58  19  22 W9G25      N/A
$$

REGIONAL REPORTS...DAKOTAS
CITY           SKY/WX    TMP DP  RH WIND       PRES   REMARKS
WILLISTON      CLOUDY    45  27  49 S7        30.17F
DICKINSON      CLOUDY    37  30  76 E5        30.15F WCI  33
BEACH          SUNNY     41  32  70 E7        30.14F
CROSBY         PTSUNNY   39  27  62 E7        30.19F WCI  34
TIOGA          PTCLDY    39  23  53 S6        30.21S WCI  35
WATFORD CITY   PTSUNNY   41  27  58 SE9       30.15F
BISMARCK       PTSUNNY   37  21  52 E7        30.22F WCI  32
GRAND FORKS    CLOUDY    34  18  52 N21       30.28S WCI  22
FARGO          SUNNY     36   9  32 N18G26    30.23F WCI  26
BUFFALO SD     CLOUDY    46  27  48 VRB3      30.06S
RAPID CITY     PTSUNNY   50  28  43 N15G22    30.11S
$$

REGIONAL REPORTS...WYOMING/IDAHO/WASHINGTON
CITY           SKY/WX    TMP DP  RH WIND       PRES   REMARKS
GILLETTE       CLOUDY    50  34  54 NW17      30.11F
SHERIDAN       PTSUNNY   57  34  42 N21G28    30.10F
CODY           CLOUDY    59  28  31 W15G21    30.14F
YELLOWSTONE LA PTSUNNY   39  28  65 NW8       30.35F WCI  33
SALMON         CLOUDY    59  34  39 N8        30.30F
MULLAN PASS    CLOUDY    39  39 100 VRB3      30.32S
SAND POINT     PTSUNNY   55  46  72 W8        30.30F
SPOKANE        CLOUDY    59  45  60 S8        30.28F
$$

REGIONAL REPORTS...ALBERTA
CITY           SKY/WX    TMP DP  RH WIND       PRES   REMARKS
CALGARY        PTSUNNY   64  30  28 W18G28    29.96F
LETHBRIDGE     PTSUNNY   61  37  41 N/A       30.01S
MEDICINE HAT   PTSUNNY   63  32  31 NW7       29.98F
EDMONTON       PTSUNNY   43  34  71 S5        29.98F
WATERTON GATE  N/A       48  36  63 SW23G37    N/A
CARDSTON       N/A       54  37  53 W17G26     N/A
MILK RIVER     N/A       61  36  39 NW28G35    N/A
$$

REGIONAL REPORTS...SASKATCHEWAN
CITY           SKY/WX    TMP DP  RH WIND       PRES   REMARKS
SWIFT CURRENT  CLOUDY    50  30  46 S12       30.03F
MOOSE JAW      PTSUNNY   41  36  82 SE13      30.14F
REGINA         PTSUNNY   36  28  73 SE17      30.17F WCI  26
VAL MARIE      N/A       52  27  38 S8         N/A
ASSINIBOIA     N/A       41  32  70 S10        N/A
CORONACH       N/A       37  32  82 SE12       N/A   WCI  29

$$



USA.gov is the U.S. government's official web portal to all federal, state and local government web resources and services.